Regional Weather Roundup
Issued by NWS

Home | Current Version | Previous Version | Text Only | Print | Product List | Glossary On
Versions: 1 2 3 4 5 6 7 8 9 10 11 12 13 14 15 16 17 18 19 20 21 22 23 24 25 26 27 28 29 30 31 32 33 34 35 36 37 38 39 40 41 42 43 44 45 46 47 48 49 50
000
ASUS45 KSLC 030710
RWRUT
UTAH REGIONAL WEATHER ROUNDUP
NATIONAL WEATHER SERVICE SALT LAKE CITY UT
100 AM MDT MON AUG 03 2015

UTZ001>011-023>025-030800-

NORTHERN UTAH

CITY           SKY/WX    TMP DP  RH WIND       PRES   REMARKS
BRIGHAM CITY   CLOUDY    77  46  32 SW5       30.00R
HILL AFB       CLOUDY    75  51  42 S20       30.03R
LOGAN          CLEAR     70  48  45 N5        29.98S
OGDEN          CLOUDY    76  50  40 S14       30.01R
PROVO AIRPORT  CLOUDY    66  55  68 SE13      30.09R
SALT LAKE CITY CLOUDY    75  53  46 S18G29    30.00R
VERNAL         LGT RAIN  63  58  83 W8        30.15F
WENDOVER       CLOUDY    82  41  23 SE17      29.96R
HEBER CITY     LGT RAIN  63  54  72 SW6       30.14S
WEST JORDAN    CLOUDY    72  54  53 S24       30.05R

$$

UTZ012>022-026-027-030800-

SOUTHERN/CENTRAL UTAH

CITY           SKY/WX    TMP DP  RH WIND       PRES   REMARKS
BLANDING       CLOUDY    61  60  96 CALM      30.23S
BRYCE CANYON   PTCLDY    49  47  93 W6        30.26F
CEDAR CITY     MOCLDY    62  42  47 CALM      30.11S
DELTA          CLOUDY    63  59  86 S6        30.11R
HANKSVILLE     PTCLDY    63  61  94 CALM      30.08S
MILFORD        CLOUDY    70  49  47 NW10      30.08R
MOAB/CYNLANDS  PTCLDY    65  62  90 E3        30.05S
PRICE          LGT RAIN  61  56  83 N5        30.13S
ST GEORGE      CLOUDY    82  50  32 SE10      29.92R
KANAB          CLEAR     64  55  72 N13       30.14S

$$

REGIONAL REPORTS     COLORADO/ARIZONA

CITY           SKY/WX    TMP DP  RH WIND       PRES   REMARKS
CRAIG, CO      CLOUDY    61  32  33 E3        30.18S
GRAND JUNCTION CLOUDY    65  57  75 E8        30.09F
RIFLE          CLOUDY    62  57  83 E6        30.17F
MONTROSE       LGT RAIN  62  58  86 CALM      30.18R
CORTEZ         CLEAR     60  58  92 CALM      30.17F
PAGE, AZ       CLEAR     70  59  68 NE3       30.06R
GRAND CANYON   CLEAR     52  50  93 CALM      30.23S
KINGMAN        CLEAR     73  45  36 CALM      29.95S
FLAGSTAFF      CLEAR     53  51  93 CALM      30.27R

$$

REGIONAL REPORTS    NEVADA/IDAHO/WYOMING

CITY           SKY/WX    TMP DP  RH WIND       PRES   REMARKS
LAS VEGAS, NV  CLEAR     90  42  18 S5        29.77S
ELY            CLOUDY    63  43  48 S8        30.15S
ELKO           CLOUDY    73  46  38 SW8       30.07R
POCATELLO, ID  CLEAR     72  43  35 NE5       29.93S
BURLEY         MOCLDY    64  51  62 CALM      29.89S
EVANSTON, WY   MOCLDY    66  42  41 W16       30.17F
ROCK SPRINGS   CLOUDY    65  48  54 S12       30.16R
KEMMERER       CLOUDY    66  37  34 S6        30.20R

$$


USA.gov is the U.S. government's official web portal to all federal, state and local government web resources and services.